User: anonymous   Login
Location: Bieg
(49.3499°N, 10.3835°E)
Time: 09:03:28
(UTC+00:00)
Language:

Cosmos 2278 - Orbit

View from above orbital plane
View from above orbital plane
View from above satellite
View from above satellite

Ground track
Ground track

The orbit data is extracted from the following two-line orbital elements,

1 23087U 94023A   24196.84477819  .00000425  00000-0  24799-3 0  9993
2 23087  71.0541 356.1477 0010348 234.9297 125.0856 14.14107757559570
Epoch (UTC): 14 July 2024 20:16:28
Eccentricity: 0.0010348
inclination: 71.0541°
perigee height: 838 km
apogee height: 853 km
right ascension of ascending node: 356.1477°
argument of perigee: 234.9297°
revolutions per day: 14.14107757
mean anomaly at epoch: 125.0856°
orbit number at epoch: 55957

The dashed part of the orbit path shows where the satellite is in the earth's shadow,  

DLR